This is the latest recevied weather packets stored in our database for station/object WD4IXD. If no packets are shown the sender has not sent any weather packets the latest 10 day(s).
| Time | Temp. | Humidity | Pressure | Rain* | Wind** | Luminosity | Snow |
|---|---|---|---|---|---|---|---|
| 1777674605 | 17.22° C | 20% | 1019.3 hPa | 0 mm | - | 652 W/m² | - |
| 1777674316 | 17.22° C | 21% | 1019.3 hPa | 0 mm | - | 666 W/m² | - |
| 1777674005 | 16.67° C | 21% | 1019.5 hPa | 0 mm | - | 664 W/m² | - |
| 1777673716 | 16.67° C | 21% | 1019.5 hPa | 0 mm | - | 670 W/m² | - |
| 1777673415 | 16.67° C | 21% | 1019.6 hPa | 0 mm | - | 684 W/m² | - |
| 1777673104 | 16.11° C | 22% | 1019.6 hPa | 0 mm | - | 705 W/m² | - |
| 1777672815 | 16.67° C | 22% | 1019.6 hPa | 0 mm | - | 118 W/m² | - |
| 1777672504 | 16.67° C | 23% | 1019.6 hPa | 0 mm | - | 455 W/m² | - |
| 1777672204 | 16.67° C | 22% | 1019.5 hPa | 0 mm | - | 772 W/m² | - |
| 1777671915 | 17.22° C | 23% | 1019.5 hPa | 0 mm | - | 788 W/m² | - |
| 1777671604 | 17.22° C | 22% | 1019.5 hPa | 0 mm | - | 788 W/m² | - |
| 1777671315 | 17.22° C | 22% | 1019.6 hPa | 0 mm | - | 802 W/m² | - |
| 1777671003 | 17.22° C | 23% | 1019.7 hPa | 0 mm | - | 802 W/m² | - |
| 1777670715 | 17.22° C | 24% | 1019.7 hPa | 0 mm | - | 809 W/m² | - |
| 1777670403 | 17.78° C | 22% | 1019.7 hPa | 0 mm | - | 853 W/m² | - |
| 1777670115 | 17.78° C | 23% | 1019.7 hPa | 0 mm | - | 128 W/m² | - |
| 1777669804 | 17.78° C | 23% | 1019.8 hPa | 0 mm | - | 874 W/m² | - |
| 1777669515 | 18.33° C | 22% | 1019.9 hPa | 0 mm | - | 911 W/m² | - |
| 1777669204 | 17.78° C | 23% | 1019.8 hPa | 0 mm | - | 932 W/m² | - |
| 1777668915 | 17.22° C | 24% | 1019.9 hPa | 0 mm | - | 919 W/m² | - |
| 1777668604 | 16.67° C | 24% | 1019.9 hPa | 0 mm | - | 904 W/m² | - |
| 1777668315 | 17.78° C | 23% | 1019.8 hPa | 0 mm | - | 904 W/m² | - |
| 1777668003 | 18.33° C | 24% | 1019.9 hPa | 0 mm | - | 898 W/m² | - |
| 1777667715 | 17.22° C | 25% | 1020 hPa | 0 mm | - | 911 W/m² | - |
| 1777667404 | 16.11° C | 26% | 1020 hPa | 0 mm | - | 921 W/m² | - |
* Rain latest hour (hover to see other rain measurements)
** Current wind speed in m/s (hover to see current wind gust speed)